Weather History for KMTC - October, 2012

Change the Weather History Date:

Thursday, October 25, 2012

  Actual Average Record
Temperature  
Mean Temperature 64 °F -  
Max Temperature 75 °F 56 °F 80 °F (1963)
Min Temperature 53 °F 40 °F 26 °F (1962)
Degree Days  
Heating Degree Days 1    
Growing Degree Days 14 (Base 50)    
Moisture  
Dew Point 54 °F    
Average Humidity 71    
Maximum Humidity 100    
Minimum Humidity 50    
Precipitation  
Precipitation 0.00 in - - ()
Sea Level Pressure  
Sea Level Pressure 29.95 in    
Wind  
Wind Speed 10 mph (South)    
Max Wind Speed 18 mph    
Max Gust Speed 26 mph    
Visibility 10 miles    
Events      
Averages and records for this station are not official NWS values.
T = Trace of Precipitation, MM = Missing Value Source: NWS Daily Summary

Daily Weather History Graph

Daily Weather History Graph

Search for Another Location

Airport or City:

Trip Planner

Search our weather history database for the weather conditions in past years. The results will help you decide how hot, cold, wet, or windy it might be!

Date:

Astronomy

Oct. 25, 2012 Rise Set
Actual Time 7:57 AM EDT 6:33 PM EDT
Civil Twilight 7:28 AM EDT 7:01 PM EDT
Nautical Twilight 6:55 AM EDT 7:34 PM EDT
Astronomical Twilight 6:22 AM EDT 8:07 PM EDT
Moon 4:22 PM EDT (10/25) 3:47 AM EDT (10/25)
Length of Visible Light 11h 33m
Length of Day
10h 36m
Waxing Gibbous, 84% of the Moon is Illuminated
Oct 25
Waxing Gibbous
Oct 29
Full
Nov 6
Last Quarter
Nov 13
New
Nov 20
First Quarter

Hourly Weather History & Observations

Time (EDT) Temp. Dew Point Humidity Pressure Visibility Wind Dir Wind Speed Gust Speed Precip Events Conditions
4:55 AM 55.4 °F 53.6 °F 94% 29.99 in 10.0 mi South 3.5 mph - N/A   Partly Cloudy
5:55 AM 53.6 °F 53.6 °F 100% 30.00 in 10.0 mi South 5.8 mph - N/A   Partly Cloudy
6:55 AM 53.6 °F 51.8 °F 94% 30.01 in 10.0 mi South 8.1 mph - N/A   Partly Cloudy
7:55 AM 53.6 °F 51.8 °F 94% 30.01 in 10.0 mi South 9.2 mph - N/A   Partly Cloudy
8:55 AM 59.0 °F 55.4 °F 88% 30.01 in 10.0 mi South 9.2 mph - N/A   Partly Cloudy
9:55 AM 62.6 °F 55.4 °F 77% 30.00 in 10.0 mi South 9.2 mph - N/A   Partly Cloudy
10:55 AM 66.2 °F 55.4 °F 68% 30.01 in 10.0 mi South 11.5 mph - N/A   Partly Cloudy
11:55 AM 69.8 °F 55.4 °F 60% 30.00 in 10.0 mi South 12.7 mph - N/A   Partly Cloudy
12:55 PM 71.6 °F 55.4 °F 57% 29.97 in 10.0 mi South 16.1 mph - N/A   Scattered Clouds
1:55 PM 71.6 °F 57.2 °F 60% 29.96 in 10.0 mi South 15.0 mph - N/A   Mostly Cloudy
2:55 PM 75.2 °F 57.2 °F 53% 29.92 in 10.0 mi South 17.3 mph - N/A   Scattered Clouds
3:55 PM 75.2 °F 55.4 °F 50% 29.90 in 10.0 mi South 18.4 mph 26.5 mph N/A   Scattered Clouds
4:55 PM 71.6 °F 55.4 °F 57% 29.88 in 10.0 mi South 16.1 mph - N/A   Partly Cloudy
5:55 PM 69.8 °F 53.6 °F 56% 29.88 in 10.0 mi South 13.8 mph - N/A   Partly Cloudy
6:55 PM 66.2 °F 53.6 °F 64% 29.88 in 10.0 mi South 13.8 mph - N/A   Partly Cloudy
7:55 PM 64.4 °F 53.6 °F 68% 29.88 in 10.0 mi South 16.1 mph - N/A   Partly Cloudy
8:55 PM 62.6 °F 53.6 °F 72% 29.89 in 10.0 mi South 10.4 mph - N/A   Partly Cloudy
9:55 PM 64.4 °F 53.6 °F 68% 29.89 in 10.0 mi South 11.5 mph - N/A   Scattered Clouds
10:55 PM 62.6 °F 53.6 °F 72% 29.89 in 10.0 mi South 11.5 mph - N/A   Scattered Clouds